[[{"header":{"parameterUnit":"m.s-1","parameterCategory":1,"la1":30.2991,"la2":30.254,"lo1":-89.0895,"lo2":-89.0444,"dy":0.0017,"dx":0.0017,"nx":28,"ny":28,"refTime":"2024-03-29T09:00:00:Z","depth":0,"parameterNumber":2,"parameterNumberName":"U-component_of_WINDS"},"data":[0,0,0,0,0,0,0,0,0,0,0,0,0,0,0,0,0,0,0,0,0,0,0,0,0,0,0,0,0,0,0,0,0,0,0,0,0,0,0,0,0,0,0,0,0,0,0,0,0,0,0,0,0,0,0,0,0,0,-0.105,-0.105,0,-0.105,-0.105,-0.105,-0.1072,-0.1072,-0.1073,-0.1073,-0.1072,-0.1072,-0.1071,0,0,0,0,0,0,0,0,0,0,0,0,0,-0.1066,-0.1066,-0.105,-0.105,-0.105,-0.105,-0.105,-0.105,-0.1072,-0.1072,-0.1073,-0.1074,-0.1073,-0.1072,-0.1071,0,0,0,0,0,0,0,0,0,0,0,0,0,-0.1062,-0.1065,-0.105,-0.106,-0.1061,-0.105,-0.105,-0.105,-0.1072,-0.1072,-0.1073,-0.1074,-0.1073,-0.1072,-0.1071,-0.1049,0,0,-0.1069,-0.1068,0,0,0,0,0,0,0,0,-0.1062,-0.1061,-0.1059,-0.106,-0.1061,-0.1062,-0.1056,-0.105,-0.1071,-0.1068,-0.1073,-0.1074,-0.1068,-0.1068,-0.1066,-0.1049,-0.1049,-0.1068,-0.1068,-0.1068,-0.1067,0,0,0,0,0,0,0,-0.1062,-0.1061,-0.105,-0.1059,-0.106,-0.1065,-0.1065,-0.1055,-0.1063,-0.1068,-0.107,-0.1069,-0.1069,-0.1067,-0.1066,-0.1049,-0.1069,-0.1068,-0.1067,-0.1067,-0.1014,-0.1013,0,0,0,0,0,0,-0.1061,-0.1061,-0.105,-0.105,-0.1064,-0.1064,-0.1064,-0.1061,-0.1063,-0.1064,-0.1069,-0.107,-0.1068,-0.1067,-0.1066,-0.104,-0.1068,-0.1067,-0.1066,-0.1015,-0.1014,-0.1013,0,0,0,0,0,0,-0.1062,-0.106,-0.105,-0.1056,-0.1055,-0.1063,-0.1058,-0.106,-0.1058,-0.1064,-0.1065,-0.1065,-0.1068,-0.1067,-0.1053,-0.1041,-0.1066,-0.1066,-0.1016,-0.1015,-0.1013,-0.0989,0,0,0,0,0,0,-0.1062,-0.106,-0.1052,-0.1056,-0.1055,-0.1037,-0.1058,-0.106,-0.1057,-0.1059,-0.1061,-0.1062,-0.1069,-0.1054,-0.1052,-0.104,-0.1065,-0.1017,-0.1015,-0.1014,-0.0991,-0.0987,-0.0984,0,0,0,0,0,-0.1062,-0.1045,-0.1051,-0.105,-0.1045,-0.1036,-0.1036,-0.1045,-0.1056,-0.1047,-0.1051,-0.1062,-0.1042,-0.1053,-0.1051,-0.1038,-0.1018,-0.1016,-0.1014,-0.0993,-0.0988,-0.0984,0,0,0,0,0,0,-0.1039,-0.1045,-0.1053,-0.1036,-0.1036,-0.104,-0.103,-0.1039,-0.1035,-0.1038,-0.1048,-0.1048,-0.1033,-0.1034,-0.1045,-0.1017,-0.1032,-0.1029,-0.1017,-0.1012,-0.1008,-0.1008,-0.1064,0,0,0,0,0,-0.1032,-0.1025,-0.1031,-0.1015,-0.1015,-0.1022,-0.1019,-0.1026,-0.1026,-0.1025,-0.1028,-0.1027,-0.1021,-0.1017,-0.1011,-0.0991,-0.0992,-0.0981,-0.0978,-0.0975,-0.0972,-0.0962,-0.0957,-0.1006,-0.1006,-0.1006,0,0,-0.1017,-0.1019,-0.1014,-0.101,-0.1011,-0.1003,-0.1022,-0.1013,-0.1007,-0.1024,-0.1011,-0.1013,-0.1013,-0.0996,-0.0988,-0.0996,-0.0959,-0.0972,-0.097,-0.0969,-0.0959,-0.0955,-0.0951,-0.1005,-0.1005,-0.1005,0,0,-0.0985,-0.0987,-0.0974,-0.0974,-0.0975,-0.0981,-0.0977,-0.0981,-0.0983,-0.097,-0.0983,-0.0976,-0.0965,-0.0964,-0.0962,-0.0931,-0.0941,-0.0929,-0.091,-0.0899,-0.0896,-0.0892,-0.0881,-0.0877,-0.0927,-0.0926,-0.0926,0,-0.0967,-0.0956,-0.0966,-0.0957,-0.0954,-0.097,-0.0957,-0.0957,-0.0955,-0.0953,-0.0962,-0.0949,-0.095,-0.0933,-0.0925,-0.0923,-0.092,-0.0929,-0.0895,-0.0892,-0.0889,-0.0879,-0.0874,-0.0925,-0.0925,-0.0925,-0.0925,0,-0.0933,-0.0925,-0.0915,-0.0914,-0.091,-0.0899,-0.0907,-0.0903,-0.091,-0.0914,-0.0901,-0.0903,-0.0898,-0.0894,-0.0901,-0.0879,-0.0883,-0.0894,-0.0909,-0.0883,-0.0873,-0.0869,-0.0923,-0.0924,-0.0924,-0.0924,0,0,-0.0886,-0.0892,-0.0888,-0.0887,-0.089,-0.0884,-0.0873,-0.0869,-0.0865,-0.0863,-0.0854,-0.0845,-0.0854,-0.0852,-0.0859,-0.085,-0.0825,-0.0862,-0.0862,-0.0855,-0.08,-0.0793,-0.0788,-0.0832,-0.0831,-0.083,-0.0801,0,-0.0856,-0.0839,-0.0848,-0.0829,-0.0822,-0.0837,-0.0828,-0.0828,-0.0831,-0.0826,-0.083,-0.0823,-0.0836,-0.0835,-0.0827,-0.083,-0.0815,-0.0832,-0.0823,-0.0823,-0.0823,-0.0783,-0.0775,-0.0746,-0.0797,-0.0796,-0.0796,0,-0.0819,-0.0817,-0.0797,-0.0801,-0.0798,-0.079,-0.0787,-0.0781,-0.0782,-0.0785,-0.0783,-0.0792,-0.0781,-0.0797,-0.0782,-0.0794,-0.0791,-0.0792,-0.0791,-0.079,-0.0808,-0.0781,-0.0737,-0.0733,-0.079,-0.079,-0.0791,0,-0.0787,-0.0779,-0.0767,-0.0766,-0.077,-0.0764,-0.0765,-0.0766,-0.0763,-0.076,-0.0758,-0.0754,-0.0752,-0.0748,-0.0756,-0.0766,-0.074,-0.0756,-0.0742,-0.0742,-0.0736,-0.0736,-0.0691,-0.0733,-0.0734,-0.0734,-0.0734,0,-0.0753,-0.074,-0.0753,-0.0745,-0.0731,-0.0742,-0.0728,-0.0731,-0.0732,-0.0724,-0.0737,-0.0729,-0.074,-0.0733,-0.0739,-0.0726,-0.0725,-0.0727,-0.0728,-0.0726,-0.0725,-0.0724,-0.0726,-0.0733,-0.0733,-0.0733,-0.0733,0,-0.0715,-0.0723,-0.071,-0.0715,-0.0716,-0.0706,-0.071,-0.0703,-0.0707,-0.0698,-0.0696,-0.0703,-0.0697,-0.0704,-0.0697,-0.0701,-0.0683,-0.0688,-0.0684,-0.0685,-0.067,-0.0672,-0.0622,-0.0616,-0.0663,-0.0663,-0.0662,0,-0.0693,-0.0684,-0.0688,-0.0684,-0.0685,-0.0678,-0.0676,-0.0686,-0.0682,-0.0682,-0.0674,-0.0669,-0.0665,-0.0653,-0.0658,-0.0653,-0.0657,-0.064,-0.0656,-0.0654,-0.0657,-0.0657,-0.0656,-0.0637,-0.0636,-0.0636,-0.0636,0,-0.0652,-0.0656,-0.0652,-0.0649,-0.0646,-0.0644,-0.0642,-0.0638,-0.0649,-0.0644,-0.0638,-0.0635,-0.0628,-0.0623,-0.0619,-0.062,-0.0629,-0.063,-0.0627,-0.0624,-0.0622,-0.0623,-0.0675,-0.0631,-0.0632,-0.0632,-0.0632,-0.0633,-0.0621,-0.0614,-0.0616,-0.0611,-0.0611,-0.061,-0.0603,-0.0607,-0.0602,-0.0598,-0.0604,-0.0596,-0.0597,-0.0593,-0.0593,-0.0586,-0.0593,-0.0588,-0.0587,-0.0585,-0.0583,-0.0623,-0.0585,-0.0586,-0.0586,-0.0586,-0.0586,0,-0.0581,-0.0583,-0.0578,-0.0577,-0.0573,-0.0582,-0.0582,-0.0577,-0.057,-0.057,-0.0566,-0.0559,-0.0553,-0.0557,-0.0552,-0.0546,-0.0551,-0.0545,-0.0545,-0.0545,-0.0577,-0.0581,-0.0542,-0.0542,-0.0542,-0.0542,-0.0542,-0.0542,-0.056,-0.0548,-0.0553,-0.0541,-0.0543,-0.0535,-0.0534,-0.0533,-0.0533,-0.0524,-0.052,-0.0523,-0.0524,-0.052,-0.0515,-0.0516,-0.0514,-0.0506,-0.0509,-0.0539,-0.0543,-0.0547,-0.0551,-0.0506,-0.0506,-0.0478,-0.0477,-0.0477]},{"header":{"parameterUnit":"m.s-1","parameterCategory":1,"la1":30.2991,"la2":30.254,"lo1":-89.0895,"lo2":-89.0444,"dy":0.0017,"dx":0.0017,"nx":28,"ny":28,"refTime":"2024-03-29T09:00:00:Z","depth":0,"parameterNumber":3,"parameterNumberName":"V-component_of_WINDS"},"data":[0,0,0,0,0,0,0,0,0,0,0,0,0,0,0,0,0,0,0,0,0,0,0,0,0,0,0,0,0,0,0,0,0,0,0,0,0,0,0,0,0,0,0,0,0,0,0,0,0,0,0,0,0,0,0,0,0,0,3.2166,3.2168,0,3.2314,3.2316,3.2317,3.2316,3.2314,3.2312,3.231,3.246,3.2465,3.2471,0,0,0,0,0,0,0,0,0,0,0,0,0,3.188,3.1886,3.2166,3.2168,3.217,3.2314,3.2316,3.2318,3.2316,3.2314,3.2311,3.2309,3.2458,3.2464,3.2471,0,0,0,0,0,0,0,0,0,0,0,0,0,3.2014,3.1887,3.2166,3.2186,3.2189,3.2313,3.2316,3.2318,3.2316,3.2313,3.2311,3.2308,3.2455,3.2464,3.2472,3.2585,0,0,3.2499,3.2503,0,0,0,0,0,0,0,0,3.2006,3.2024,3.2181,3.2185,3.2189,3.2293,3.227,3.2408,3.2317,3.2268,3.231,3.2306,3.2406,3.2419,3.2453,3.2592,3.2598,3.25,3.2505,3.2509,3.2511,0,0,0,0,0,0,0,3.1997,3.2018,3.2224,3.2183,3.2188,3.2187,3.2203,3.2296,3.2352,3.2272,3.2272,3.229,3.2408,3.2445,3.2457,3.2601,3.25,3.2507,3.2513,3.2516,3.2839,3.2843,0,0,0,0,0,0,3.1984,3.201,3.222,3.2229,3.2089,3.2195,3.2213,3.2263,3.2351,3.2362,3.2292,3.2289,3.2431,3.2447,3.2462,3.26,3.2509,3.2517,3.2522,3.2836,3.284,3.2844,0,0,0,0,0,0,3.1978,3.2002,3.2214,3.212,3.2147,3.2203,3.2259,3.2267,3.2304,3.2366,3.2376,3.232,3.243,3.245,3.2555,3.2605,3.2521,3.2529,3.2832,3.2837,3.2842,3.2876,0,0,0,0,0,0,3.1969,3.2,3.2044,3.2121,3.2152,3.2304,3.2262,3.2272,3.2319,3.2317,3.2395,3.2405,3.2429,3.2542,3.2563,3.2615,3.2536,3.2828,3.2834,3.284,3.2871,3.2881,3.2891,0,0,0,0,0,3.1959,3.2047,3.2046,3.2071,3.2208,3.2307,3.2325,3.2352,3.2323,3.2368,3.2408,3.2402,3.2596,3.2552,3.2577,3.2632,3.2825,3.2833,3.284,3.2866,3.2879,3.2891,0,0,0,0,0,0,3.1974,3.2058,3.2057,3.2173,3.2233,3.2307,3.2363,3.2365,3.2434,3.2429,3.2458,3.2476,3.258,3.2617,3.2567,3.2746,3.2707,3.2719,3.2718,3.2731,3.2741,3.273,3.2543,0,0,0,0,0,3.1991,3.2066,3.2134,3.223,3.226,3.2307,3.2351,3.2366,3.243,3.2455,3.2503,3.2564,3.2638,3.2687,3.2759,3.2876,3.2893,3.2926,3.2936,3.2944,3.2955,3.3019,3.3035,3.2869,3.2868,3.2868,0,0,3.2027,3.2081,3.2127,3.2234,3.2283,3.2359,3.2328,3.241,3.2467,3.2467,3.2569,3.2607,3.2677,3.2788,3.2839,3.2822,3.3004,3.2954,3.296,3.2966,3.3028,3.3044,3.3058,3.2874,3.2873,3.2872,0,0,3.213,3.2179,3.2264,3.2313,3.2387,3.2418,3.2438,3.2512,3.2537,3.264,3.2642,3.271,3.2838,3.2888,3.293,3.3053,3.305,3.3075,3.3128,3.3191,3.3204,3.3215,3.3259,3.3275,3.3086,3.3086,3.3086,0,3.2165,3.228,3.2307,3.239,3.2437,3.2442,3.2528,3.2574,3.2668,3.27,3.2679,3.284,3.2887,3.301,3.304,3.3074,3.3098,3.3066,3.32,3.3212,3.3223,3.3265,3.3282,3.3088,3.3088,3.3088,3.3087,0,3.2319,3.2399,3.2458,3.2549,3.2603,3.2687,3.2726,3.2778,3.2788,3.2821,3.2926,3.2983,3.3067,3.3097,3.3108,3.3222,3.3209,3.3193,3.3155,3.3241,3.3281,3.3297,3.3092,3.3091,3.309,3.309,0,0,3.2436,3.2541,3.2562,3.2604,3.2686,3.2748,3.2832,3.2914,3.2958,3.3022,3.3093,3.3201,3.3188,3.3235,3.3252,3.3307,3.3401,3.3285,3.3287,3.3304,3.353,3.3541,3.3559,3.3399,3.3403,3.3405,3.3524,0,3.2548,3.2698,3.2725,3.2855,3.2929,3.2935,3.3008,3.3066,3.3098,3.3166,3.3201,3.3278,3.3254,3.3283,3.3338,3.3378,3.3446,3.3369,3.3465,3.3468,3.3448,3.358,3.3592,3.3701,3.3539,3.3542,3.3544,0,3.2699,3.2768,3.2905,3.2978,3.301,3.3075,3.3153,3.3217,3.3283,3.3303,3.3357,3.3367,3.3454,3.3412,3.3532,3.3479,3.352,3.3545,3.355,3.356,3.3511,3.3593,3.3736,3.3753,3.3569,3.3567,3.3565,0,3.277,3.2897,3.2996,3.3031,3.3118,3.3164,3.3202,3.3265,3.3313,3.3381,3.3412,3.3489,3.3532,3.3591,3.3622,3.3588,3.3739,3.3699,3.3758,3.3757,3.379,3.3787,3.3941,3.3816,3.3816,3.3815,3.3815,0,3.2892,3.2977,3.3029,3.309,3.3185,3.3215,3.3307,3.3344,3.34,3.3468,3.3478,3.3541,3.3578,3.3647,3.3672,3.3767,3.3786,3.3804,3.381,3.3804,3.3801,3.3831,3.3824,3.382,3.3819,3.3818,3.3817,0,3.2988,3.3027,3.3135,3.3209,3.3229,3.3295,3.3358,3.3417,3.345,3.3536,3.3558,3.3609,3.369,3.3727,3.3827,3.3844,3.3953,3.3953,3.3931,3.3933,3.399,3.3984,3.4168,3.4194,3.4051,3.4052,3.4053,0,3.3064,3.3129,3.3209,3.3256,3.3295,3.337,3.3419,3.3451,3.3502,3.3582,3.3631,3.3713,3.3781,3.391,3.3956,3.4033,3.4035,3.4094,3.4047,3.4038,3.4036,3.4032,3.4039,3.4103,3.4104,3.4105,3.4106,0,3.3193,3.321,3.328,3.3358,3.3417,3.348,3.3541,3.3578,3.362,3.3677,3.376,3.3813,3.3916,3.3997,3.4077,3.4115,3.4118,3.4121,3.4139,3.4133,3.4118,3.4127,3.3955,3.4117,3.4116,3.4115,3.4114,3.4114,3.3282,3.334,3.3406,3.3484,3.3534,3.3591,3.365,3.3691,3.3761,3.3848,3.3862,3.3952,3.4016,3.4123,3.4165,3.4235,3.4221,3.4246,3.4253,3.4259,3.4262,3.4106,3.425,3.425,3.4249,3.4249,3.4249,0,3.3412,3.3455,3.3527,3.3613,3.3675,3.3672,3.374,3.3792,3.3871,3.3931,3.3997,3.4093,3.4172,3.4224,3.4304,3.435,3.4353,3.437,3.4366,3.4375,3.427,3.4247,3.4366,3.4366,3.4366,3.4366,3.4365,3.4365,3.3487,3.3585,3.3609,3.3732,3.3774,3.3862,3.3901,3.3954,3.4002,3.4109,3.4175,3.4209,3.4266,3.435,3.4422,3.4435,3.4464,3.4481,3.4494,3.4395,3.4383,3.4371,3.435,3.4487,3.4488,3.4593,3.4594,3.4595]}]]